Humidity-temperature Sensor

Selected Measurement Type: Relative Humidity

 
Relative Humidity [%]     6 entries per hour
Showing data from 2/5/2021 (12:40:00 Z) to 2/4/2021 (00:01:00 Z)
Previous Next [ Day | 3-Days | 7-Days ]
First Last
Prev [ Day | 3-Days | 7-Days ] Next
First Last

Start Time:     :
End Time:     :     
Time (in GMT) :00 :50 :40 :30 :20 :10
Previous Next [ Day | 3-Days | 7-Days ]
First Last
Prev [ Day | 3-Days | 7-Days ] Next
First Last


123 => good data
MM => data is determined as missing
-- => data not received/configured
Back to Top Back to Top
2/5/2021 13:00 to 12:10 -- -- 100.90 98.42 97.08 97.51
2/5/2021 12:00 to 11:10 97.18 96.94 98.83 96.85 96.11 96.27
2/5/2021 11:00 to 10:10 96.13 96.23 96.63 97.00 96.01 95.43
2/5/2021 10:00 to 9:10 95.26 95.28 95.18 95.66 96.42 96.03
2/5/2021 09:00 to 8:10 95.99 96.05 96.52 96.85 96.94 97.00
2/5/2021 08:00 to 7:10 97.02 96.63 96.48 96.69 96.94 97.14
2/5/2021 07:00 to 6:10 97.14 96.65 96.54 96.56 96.73 96.83
2/5/2021 06:00 to 5:10 96.79 96.91 96.96 97.04 96.96 96.54
2/5/2021 05:00 to 4:10 96.46 96.27 95.74 95.66 95.47 95.84
2/5/2021 04:00 to 3:10 95.78 95.97 96.05 95.72 95.47 95.35
2/5/2021 03:00 to 2:10 95.20 95.37 95.64 95.53 94.89 94.77
2/5/2021 02:00 to 1:10 95.02 94.75 94.75 95.22 94.81 94.40
2/5/2021 01:00 to 0:10 94.85 95.35 95.78 95.88 96.23 96.07
2/5/2021 00:00 to 23:10 94.64 93.12 93.16 93.94 94.19 94.58
2/4/2021 23:00 to 22:10 94.91 94.71 95.08 94.64 93.98 94.07
2/4/2021 22:00 to 21:10 94.50 94.67 94.73 94.69 94.07 93.98
2/4/2021 21:00 to 20:10 92.91 93.39 94.00 94.17 94.85 94.93
2/4/2021 20:00 to 19:10 95.02 95.70 95.18 93.80 93.18 92.66
2/4/2021 19:00 to 18:10 92.66 92.83 93.01 92.66 92.95 92.91
2/4/2021 18:00 to 17:10 92.99 92.93 92.58 92.25 92.56 92.62
2/4/2021 17:00 to 16:10 92.31 92.11 91.88 91.69 91.45 92.15
2/4/2021 16:00 to 15:10 92.07 94.07 94.31 94.19 94.17 93.88
2/4/2021 15:00 to 14:10 93.88 93.34 93.34 94.89 96.13 96.63
2/4/2021 14:00 to 13:10 96.52 96.73 96.89 96.79 97.10 97.12
2/4/2021 13:00 to 12:10 97.29 97.06 96.87 96.09 95.84 95.35
2/4/2021 12:00 to 11:10 95.41 96.34 96.46 97.39 97.02 97.06
2/4/2021 11:00 to 10:10 97.18 96.96 97.12 96.83 96.77 96.73
2/4/2021 10:00 to 9:10 97.14 96.94 96.85 96.63 96.17 96.17
2/4/2021 09:00 to 8:10 96.56 96.81 97.06 97.33 97.29 97.20
2/4/2021 08:00 to 7:10 97.27 97.37 97.20 96.77 96.75 96.89
2/4/2021 07:00 to 6:10 96.75 96.83 96.67 96.77 96.77 96.83
2/4/2021 06:00 to 5:10 97.16 98.11 98.52 98.81 98.90 99.76
2/4/2021 05:00 to 4:10 100.63 100.84 98.09 95.14 94.62 94.60
2/4/2021 04:00 to 3:10 95.24 94.77 94.62 94.42 94.79 94.62
2/4/2021 03:00 to 2:10 94.40 94.38 94.21 94.15 94.25 94.27
2/4/2021 02:00 to 1:10 93.94 93.86 93.78 94.09 93.45 93.08
2/4/2021 01:00 to 0:10 93.06 93.67 93.57 94.19 94.27 93.92